Location: Eboldshausen
(51.7766°N, 10.0050°E)
Time: 05:37:54
(UTC+00:00)

SJ 16-02 - Pass Details

Date: 15 November 2025
Orbit: 585 x 594 km, 75.0° (Epoch: 10 December)

Event Time Altitude Azimuth Distance (km) Brightness Sun altitude
Rises 17:53:22 0° 186° (S) 2,825 4.8 -22.0°
Reaches altitude 10° 17:55:38 10° 180° (S) 1,927 3.9 -22.4°
Enters shadow 17:57:27 23° 169° (S) 1,265 2.8 -22.7°
